STARLINK-1129 (45046 NORAD) Tracking and Keplerian Element Data

This shows tracking and keplerian element data for the satellite.

Feedback or suggestion? Click here.




ElementValue
Catalog45046
NameSTARLINK-1129
Epoch Orbit2470
Epoch Day189.91668981
Epoch Year2020
RAAN222.6845
Inclination52.9968
Eccentricity0.0001058
Argument of Perigee102.9836
Mean Anonmoly152.3335
Mean Motion15.05541751
Decay Rate0.00030232
L11 45046U 20006C 20189.91668981 .00030232 00000-0 20873-2 0 9997
L22 45046 52.9968 222.6845 0001058 102.9836 152.3335 15.05541751 24701

Live tracking and technical data element details for STARLINK-1129 (NORAD 45046). STARLINK-1129 can be tracked NOW for your location showing map with azimuth and elevation plus other details from your city location.

Track the satellite on the map from your city or location and see movement details for azimuth, elevation, latitude, longitude, range, height, and movement on the map or in text.







IsCatalogInMostPopularTable: catalog: 45046, numindb: 33
Update: records affected: 1



GetName: 45046 STARLINK-1129

Hit Count: updated at: Fri, 10 Jul 2020 04:21:25 GMT